| time (UTC) | temp F | wind direction | speed MPH | gust MPH | rain 1hr in | rain 24hr in | rain mn in | humidity % | barometer mb |
| 20260831192203 | 100 | 197 | 8.0 | 18.0 | 0.00 | 0.00 | 0.00 | 39 | 1013.4 |
| 20260831191702 | 99 | 207 | 8.0 | 17.0 | 0.00 | 0.00 | 0.00 | 41 | 1013.4 |
| 20260831191201 | 99 | 216 | 7.0 | 17.0 | 0.00 | 0.00 | 0.00 | 39 | 1013.4 |
| 20260831190701 | 100 | 192 | 6.0 | 17.0 | 0.00 | 0.00 | 0.00 | 41 | 1013.4 |
| 20260831190202 | 99 | 188 | 9.0 | 17.0 | 0.00 | 0.00 | 0.00 | 40 | 1013.5 |
| 20260831185659 | 99 | 193 | 8.0 | 17.0 | 0.00 | 0.00 | 0.00 | 41 | 1013.5 |
| 20260831184659 | 99 | 240 | 9.0 | 18.0 | 0.00 | 0.00 | 0.00 | 41 | 1013.5 |
| 20260831184156 | 99 | 206 | 6.0 | 18.0 | 0.00 | 0.00 | 0.00 | 42 | 1013.5 |
| 20260831183657 | 99 | 199 | 8.0 | 16.0 | 0.00 | 0.00 | 0.00 | 42 | 1013.5 |
| 20260831183158 | 99 | 244 | 6.0 | 17.0 | 0.00 | 0.00 | 0.00 | 43 | 1013.5 |
| 20260831182654 | 98 | 137 | 7.0 | 17.0 | 0.00 | 0.00 | 0.00 | 42 | 1013.7 |
| 20260831180653 | 98 | 200 | 6.0 | 18.0 | 0.00 | 0.00 | 0.00 | 45 | 1013.8 |
| 20260831180153 | 98 | 197 | 9.0 | 15.0 | 0.00 | 0.00 | 0.00 | 44 | 1013.9 |
| 20260831175650 | 97 | 281 | 6.0 | 15.0 | 0.00 | 0.00 | 0.00 | 43 | 1014.0 |
| 20260831175150 | 97 | 219 | 6.0 | 15.0 | 0.00 | 0.00 | 0.00 | 44 | 1014.1 |
| 20260831174652 | 97 | 231 | 7.0 | 15.0 | 0.00 | 0.00 | 0.00 | 44 | 1014.2 |
| 20260831174149 | 97 | 244 | 8.0 | 15.0 | 0.00 | 0.00 | 0.00 | 44 | 1014.2 |
| 20260831173649 | 96 | 213 | 8.0 | 15.0 | 0.00 | 0.00 | 0.00 | 45 | 1014.3 |
| 20260831173149 | 96 | 202 | 8.0 | 15.0 | 0.00 | 0.00 | 0.00 | 45 | 1014.5 |
| 20260831172647 | 95 | 185 | 7.0 | 16.0 | 0.00 | 0.00 | 0.00 | 48 | 1014.6 |
| 20260831172147 | 95 | 235 | 8.0 | 19.0 | 0.00 | 0.00 | 0.00 | 48 | 1014.6 |
| 20260831171647 | 95 | 224 | 6.0 | 19.0 | 0.00 | 0.00 | 0.00 | 49 | 1014.6 |
| 20260831171144 | 95 | 178 | 8.0 | 19.0 | 0.00 | 0.00 | 0.00 | 47 | 1014.6 |
| 20260831170645 | 95 | 226 | 6.0 | 14.0 | 0.00 | 0.00 | 0.00 | 50 | 1014.6 |
| 20260831170143 | 95 | 250 | 5.0 | 14.0 | 0.00 | 0.00 | 0.00 | 50 | 1014.7 |
| 20260831165643 | 94 | 226 | 7.0 | 14.0 | 0.00 | 0.00 | 0.00 | 50 | 1014.7 |
| 20260831165144 | 94 | 231 | 5.0 | 14.0 | 0.00 | 0.00 | 0.00 | 50 | 1014.7 |
| 20260831164643 | 93 | 199 | 8.0 | 14.0 | 0.00 | 0.00 | 0.00 | 51 | 1014.8 |
| 20260831164141 | 93 | 209 | 7.0 | 13.0 | 0.00 | 0.00 | 0.00 | 51 | 1014.8 |
| 20260831163642 | 93 | 199 | 6.0 | 12.0 | 0.00 | 0.00 | 0.00 | 50 | 1014.9 |
| 20260831163141 | 92 | 212 | 5.0 | 12.0 | 0.00 | 0.00 | 0.00 | 53 | 1014.9 |
| 20260831162639 | 91 | 235 | 4.0 | 13.0 | 0.00 | 0.00 | 0.00 | 51 | 1014.9 |
| 20260831162139 | 91 | 248 | 6.0 | 13.0 | 0.00 | 0.00 | 0.00 | 52 | 1014.9 |
| 20260831161137 | 89 | 259 | 4.0 | 11.0 | 0.00 | 0.00 | 0.00 | 56 | 1015.1 |
| 20260831160137 | 90 | 188 | 4.0 | 9.0 | 0.00 | 0.00 | 0.00 | 56 | 1015.1 |
| 20260831155635 | 89 | 210 | 5.0 | 11.0 | 0.00 | 0.00 | 0.00 | 54 | 1015.1 |
| 20260831155135 | 89 | 204 | 7.0 | 13.0 | 0.00 | 0.00 | 0.00 | 56 | 1015.2 |
| 20260831154635 | 89 | 145 | 5.0 | 13.0 | 0.00 | 0.00 | 0.00 | 56 | 1015.1 |
| 20260831154133 | 88 | 231 | 4.0 | 12.0 | 0.00 | 0.00 | 0.00 | 58 | 1015.0 |
| 20260831153633 | 88 | 251 | 3.0 | 12.0 | 0.00 | 0.00 | 0.00 | 59 | 1015.1 |
| 20260831153131 | 88 | 199 | 5.0 | 10.0 | 0.00 | 0.00 | 0.00 | 60 | 1015.0 |
| 20260831152131 | 87 | 243 | 5.0 | 12.0 | 0.00 | 0.00 | 0.00 | 60 | 1015.1 |
| 20260831151631 | 86 | 188 | 5.0 | 13.0 | 0.00 | 0.00 | 0.00 | 60 | 1015.0 |
| 20260831151132 | 86 | 203 | 6.0 | 13.0 | 0.00 | 0.00 | 0.00 | 60 | 1015.1 |
| 20260831150631 | 86 | 185 | 5.0 | 11.0 | 0.00 | 0.00 | 0.00 | 61 | 1015.1 |
| 20260831150131 | 85 | 199 | 4.0 | 11.0 | 0.00 | 0.00 | 0.00 | 62 | 1015.0 |
| 20260831145632 | 85 | 202 | 5.0 | 14.0 | 0.00 | 0.00 | 0.00 | 63 | 1014.9 |
| 20260831145132 | 84 | 204 | 7.0 | 14.0 | 0.00 | 0.00 | 0.00 | 64 | 1015.0 |
| 20260831144630 | 84 | 197 | 5.0 | 12.0 | 0.00 | 0.00 | 0.00 | 63 | 1014.9 |
| 20260831144131 | 83 | 210 | 5.0 | 12.0 | 0.00 | 0.00 | 0.00 | 63 | 1015.0 |
| 20260831143131 | 82 | 230 | 6.0 | 14.0 | 0.00 | 0.00 | 0.00 | 65 | 1015.0 |
| 20260831142631 | 82 | 228 | 5.0 | 9.0 | 0.00 | 0.00 | 0.00 | 67 | 1015.1 |
| 20260831142131 | 81 | 186 | 3.0 | 11.0 | 0.00 | 0.00 | 0.00 | 69 | 1015.1 |
| 20260831141630 | 81 | 200 | 5.0 | 11.0 | 0.00 | 0.00 | 0.00 | 67 | 1015.2 |
| 20260831140631 | 80 | 182 | 3.0 | 9.0 | 0.00 | 0.00 | 0.00 | 69 | 1015.2 |
| 20260831140131 | 79 | 230 | 4.0 | 12.0 | 0.00 | 0.00 | 0.00 | 70 | 1015.2 |
| 20260831135631 | 79 | 235 | 4.0 | 12.0 | 0.00 | 0.00 | 0.00 | 70 | 1015.2 |
| 20260831135132 | 78 | 185 | 3.0 | 10.0 | 0.00 | 0.00 | 0.00 | 70 | 1015.1 |
| 20260831134632 | 78 | 195 | 4.0 | 9.0 | 0.00 | 0.00 | 0.00 | 70 | 1015.2 |
| 20260831133631 | 77 | 182 | 3.0 | 9.0 | 0.00 | 0.00 | 0.00 | 72 | 1015.2 |
| 20260831133132 | 77 | 195 | 3.0 | 9.0 | 0.00 | 0.00 | 0.00 | 72 | 1015.3 |
| 20260831132632 | 77 | 189 | 4.0 | 9.0 | 0.00 | 0.00 | 0.00 | 72 | 1015.1 |
| 20260831132131 | 77 | 151 | 3.0 | 7.0 | 0.00 | 0.00 | 0.00 | 72 | 1015.1 |
| 20260831131631 | 77 | 209 | 3.0 | 7.0 | 0.00 | 0.00 | 0.00 | 72 | 1015.3 |
| 20260831131131 | 77 | 207 | 4.0 | 6.0 | 0.00 | 0.00 | 0.00 | 73 | 1015.2 |
| 20260831130631 | 76 | 245 | 2.0 | 5.0 | 0.00 | 0.00 | 0.00 | 74 | 1015.2 |
| 20260831130132 | 76 | 197 | 2.0 | 6.0 | 0.00 | 0.00 | 0.00 | 73 | 1015.1 |
| 20260831125632 | 76 | 248 | 3.0 | 9.0 | 0.00 | 0.00 | 0.00 | 75 | 1015.0 |
| 20260831125131 | 75 | 180 | 4.0 | 9.0 | 0.00 | 0.00 | 0.00 | 75 | 1014.9 |
| 20260831124131 | 75 | 161 | 4.0 | 6.0 | 0.00 | 0.00 | 0.00 | 75 | 1014.8 |
| 20260831123630 | 74 | 154 | 4.0 | 6.0 | 0.00 | 0.00 | 0.00 | 76 | 1014.6 |
| 20260831123129 | 73 | 183 | 4.0 | 7.0 | 0.00 | 0.00 | 0.00 | 77 | 1014.6 |
| 20260831122629 | 72 | 196 | 3.0 | 7.0 | 0.00 | 0.00 | 0.00 | 80 | 1014.3 |
| 20260831122130 | 70 | 166 | 3.0 | 5.0 | 0.00 | 0.00 | 0.00 | 82 | 1014.3 |
| 20260831121628 | 69 | 172 | 2.0 | 4.0 | 0.00 | 0.00 | 0.00 | 85 | 1014.2 |
| 20260831121128 | 69 | 172 | 1.0 | 4.0 | 0.00 | 0.00 | 0.00 | 84 | 1014.2 |
| 20260831120125 | 69 | 193 | 1.0 | 4.0 | 0.00 | 0.00 | 0.00 | 86 | 1014.2 |
| 20260831115626 | 68 | 179 | 2.0 | 4.0 | 0.00 | 0.00 | 0.00 | 86 | 1014.1 |
| 20260831115126 | 68 | 176 | 2.0 | 3.0 | 0.00 | 0.00 | 0.00 | 87 | 1014.0 |
| 20260831114623 | 68 | 200 | 2.0 | 3.0 | 0.00 | 0.00 | 0.00 | 86 | 1014.0 |
| 20260831113624 | 68 | 200 | 1.0 | 3.0 | 0.00 | 0.00 | 0.00 | 85 | 1014.0 |
| 20260831113124 | 69 | 200 | 1.0 | 3.0 | 0.00 | 0.00 | 0.00 | 84 | 1014.0 |
| 20260831112625 | 69 | 200 | 1.0 | 4.0 | 0.00 | 0.00 | 0.00 | 83 | 1014.2 |
| 20260831112122 | 70 | 200 | 0.0 | 4.0 | 0.00 | 0.00 | 0.00 | 82 | 1014.2 |
| 20260831111620 | 71 | 196 | 1.0 | 4.0 | 0.00 | 0.00 | 0.00 | 81 | 1014.0 |
| 20260831111120 | 71 | 196 | 1.0 | 4.0 | 0.00 | 0.00 | 0.00 | 80 | 1013.9 |
| 20260831110620 | 71 | 168 | 2.0 | 4.0 | 0.00 | 0.00 | 0.00 | 79 | 1013.9 |
| 20260831110118 | 70 | 161 | 2.0 | 4.0 | 0.00 | 0.00 | 0.00 | 81 | 1013.7 |
| 20260831105619 | 71 | 144 | 1.0 | 5.0 | 0.00 | 0.00 | 0.00 | 80 | 1013.8 |
| 20260831105118 | 71 | 176 | 3.0 | 5.0 | 0.00 | 0.00 | 0.00 | 79 | 1013.6 |
| 20260831104615 | 71 | 166 | 2.0 | 5.0 | 0.00 | 0.00 | 0.00 | 78 | 1013.6 |
| 20260831104116 | 72 | 172 | 3.0 | 5.0 | 0.00 | 0.00 | 0.00 | 77 | 1013.5 |
| 20260831103114 | 72 | 176 | 3.0 | 6.0 | 0.00 | 0.00 | 0.00 | 76 | 1013.4 |
| 20260831102114 | 71 | 196 | 2.0 | 6.0 | 0.00 | 0.00 | 0.00 | 78 | 1013.3 |
| 20260831101614 | 71 | 186 | 3.0 | 6.0 | 0.00 | 0.00 | 0.00 | 78 | 1013.3 |
| 20260831101115 | 71 | 173 | 2.0 | 5.0 | 0.00 | 0.00 | 0.00 | 80 | 1013.3 |
| 20260831100612 | 70 | 185 | 2.0 | 5.0 | 0.00 | 0.00 | 0.00 | 81 | 1013.2 |
| 20260831100110 | 70 | 172 | 2.0 | 3.0 | 0.00 | 0.00 | 0.00 | 82 | 1013.2 |
| 20260831095610 | 70 | 193 | 2.0 | 3.0 | 0.00 | 0.00 | 0.00 | 83 | 1013.2 |
| 20260831095110 | 70 | 195 | 2.0 | 3.0 | 0.00 | 0.00 | 0.00 | 82 | 1013.2 |
| 20260831094107 | 71 | 180 | 1.0 | 4.0 | 0.00 | 0.00 | 0.00 | 80 | 1013.1 |
| 20260831093608 | 71 | 176 | 2.0 | 3.0 | 0.00 | 0.00 | 0.00 | 80 | 1013.0 |
| 20260831093106 | 72 | 196 | 2.0 | 4.0 | 0.00 | 0.00 | 0.00 | 78 | 1013.0 |
| 20260831092604 | 73 | 185 | 2.0 | 4.0 | 0.00 | 0.00 | 0.00 | 76 | 1012.9 |
| 20260831092103 | 73 | 165 | 2.0 | 5.0 | 0.00 | 0.00 | 0.00 | 75 | 1012.7 |
| 20260831091603 | 73 | 166 | 3.0 | 5.0 | 0.00 | 0.00 | 0.00 | 75 | 1012.8 |
| 20260831091102 | 73 | 179 | 2.0 | 5.0 | 0.00 | 0.00 | 0.00 | 74 | 1012.8 |
| 20260831090601 | 74 | 147 | 3.0 | 5.0 | 0.00 | 0.00 | 0.00 | 74 | 1012.7 |
| 20260831085102 | 75 | 175 | 3.0 | 6.0 | 0.00 | 0.00 | 0.00 | 70 | 1012.8 |
| 20260831084602 | 75 | 164 | 3.0 | 6.0 | 0.00 | 0.00 | 0.00 | 69 | 1012.8 |
| 20260831084102 | 76 | 176 | 2.0 | 6.0 | 0.00 | 0.00 | 0.00 | 69 | 1012.7 |
| 20260831083602 | 76 | 183 | 3.0 | 6.0 | 0.00 | 0.00 | 0.00 | 69 | 1012.8 |
| 20260831082602 | 75 | 171 | 3.0 | 5.0 | 0.00 | 0.00 | 0.00 | 70 | 1012.8 |
| 20260831082102 | 75 | 125 | 3.0 | 5.0 | 0.00 | 0.00 | 0.00 | 70 | 1012.7 |
| 20260831081601 | 74 | 173 | 2.0 | 10.0 | 0.00 | 0.00 | 0.00 | 72 | 1012.6 |
| 20260831081101 | 74 | 179 | 3.0 | 10.0 | 0.00 | 0.00 | 0.00 | 72 | 1012.7 |
| 20260831080600 | 74 | 189 | 2.0 | 4.0 | 0.00 | 0.00 | 0.00 | 72 | 1012.7 |
| 20260831080101 | 75 | 178 | 2.0 | 4.0 | 0.00 | 0.00 | 0.00 | 71 | 1012.6 |
| 20260831075600 | 75 | 182 | 1.0 | 4.0 | 0.00 | 0.00 | 0.00 | 69 | 1012.5 |
| 20260831075100 | 76 | 159 | 2.0 | 4.0 | 0.00 | 0.00 | 0.00 | 69 | 1012.6 |
| 20260831074559 | 77 | 182 | 2.0 | 5.0 | 0.00 | 0.00 | 0.00 | 67 | 1012.5 |
| 20260831074100 | 78 | 179 | 2.0 | 5.0 | 0.00 | 0.00 | 0.00 | 65 | 1012.5 |
| 20260831073600 | 78 | 183 | 3.0 | 6.0 | 0.00 | 0.00 | 0.00 | 63 | 1012.4 |
| 20260831073100 | 79 | 197 | 3.0 | 7.0 | 0.00 | 0.00 | 0.00 | 62 | 1012.5 |
| 20260831072559 | 79 | 189 | 3.0 | 10.0 | 0.00 | 0.00 | 0.00 | 61 | 1012.5 |
| 20260831072059 | 79 | 166 | 3.0 | 10.0 | 0.00 | 0.00 | 0.00 | 62 | 1012.5 |
| 20260831071559 | 78 | 190 | 3.0 | 9.0 | 0.00 | 0.00 | 0.00 | 63 | 1012.4 |
| 20260831071059 | 77 | 195 | 4.0 | 6.0 | 0.00 | 0.00 | 0.00 | 67 | 1012.4 |
| 20260831070559 | 77 | 231 | 3.0 | 5.0 | 0.00 | 0.00 | 0.00 | 66 | 1012.4 |
| 20260831070059 | 78 | 202 | 1.0 | 6.0 | 0.00 | 0.00 | 0.00 | 67 | 1012.3 |
| 20260831065559 | 79 | 180 | 3.0 | 6.0 | 0.00 | 0.00 | 0.00 | 62 | 1012.3 |
| 20260831065059 | 78 | 162 | 3.0 | 6.0 | 0.00 | 0.00 | 0.00 | 63 | 1012.2 |
| 20260831064558 | 78 | 165 | 3.0 | 6.0 | 0.00 | 0.00 | 0.00 | 63 | 1012.1 |
| 20260831064059 | 79 | 175 | 2.0 | 7.0 | 0.00 | 0.00 | 0.00 | 62 | 1012.0 |
| 20260831063559 | 79 | 178 | 3.0 | 7.0 | 0.00 | 0.00 | 0.00 | 63 | 1012.0 |
| 20260831063058 | 79 | 159 | 4.0 | 9.0 | 0.00 | 0.00 | 0.00 | 63 | 1012.0 |
| 20260831062558 | 78 | 145 | 4.0 | 9.0 | 0.00 | 0.00 | 0.00 | 64 | 1012.0 |
| 20260831062058 | 77 | 155 | 3.0 | 7.0 | 0.00 | 0.00 | 0.00 | 64 | 1011.9 |
| 20260831061557 | 77 | 159 | 3.0 | 7.0 | 0.00 | 0.00 | 0.00 | 67 | 1011.8 |
| 20260831061058 | 77 | 158 | 2.0 | 7.0 | 0.00 | 0.00 | 0.00 | 67 | 1011.9 |
| 20260831060558 | 77 | 188 | 2.0 | 5.0 | 0.00 | 0.00 | 0.00 | 67 | 1011.8 |
| 20260831060058 | 78 | 152 | 3.0 | 5.0 | 0.00 | 0.00 | 0.00 | 66 | 1011.8 |
| 20260831055558 | 78 | 166 | 3.0 | 5.0 | 0.00 | 0.00 | 0.00 | 66 | 1011.8 |
| 20260831055058 | 78 | 178 | 3.0 | 5.0 | 0.00 | 0.00 | 0.00 | 66 | 1011.8 |
| 20260831054558 | 77 | 171 | 3.0 | 6.0 | 0.00 | 0.00 | 0.00 | 67 | 1011.8 |
| 20260831053557 | 77 | 157 | 3.0 | 6.0 | 0.00 | 0.00 | 0.00 | 68 | 1011.7 |
| 20260831053056 | 76 | 171 | 2.0 | 5.0 | 0.00 | 0.00 | 0.00 | 69 | 1011.6 |
| 20260831052556 | 76 | 159 | 2.0 | 4.0 | 0.00 | 0.00 | 0.00 | 71 | 1011.6 |
| 20260831052056 | 76 | 179 | 2.0 | 6.0 | 0.00 | 0.00 | 0.00 | 70 | 1011.6 |
| 20260831051557 | 76 | 182 | 2.0 | 6.0 | 0.00 | 0.00 | 0.00 | 70 | 1011.7 |
| 20260831051057 | 76 | 195 | 2.0 | 4.0 | 0.00 | 0.00 | 0.00 | 71 | 1011.6 |
| 20260831050056 | 75 | 173 | 2.0 | 4.0 | 0.00 | 0.00 | 0.00 | 73 | 1011.6 |
| 20260831045556 | 76 | 166 | 2.0 | 3.0 | 0.00 | 0.00 | 0.00 | 72 | 1011.6 |
| 20260831045056 | 76 | 175 | 1.0 | 4.0 | 0.00 | 0.00 | 0.00 | 71 | 1011.6 |
| 20260831044556 | 77 | 180 | 2.0 | 4.0 | 0.00 | 0.00 | 0.00 | 69 | 1011.5 |
| 20260831044057 | 78 | 220 | 1.0 | 4.0 | 0.00 | 0.00 | 0.00 | 68 | 1011.5 |
| 20260831043055 | 80 | 207 | 2.0 | 6.0 | 0.00 | 0.00 | 0.00 | 64 | 1011.4 |
| 20260831042556 | 81 | 166 | 3.0 | 9.0 | 0.00 | 0.00 | 0.00 | 61 | 1011.5 |
| 20260831040555 | 82 | 197 | 3.0 | 6.0 | 0.00 | 0.00 | 0.00 | 59 | 1011.5 |
| 20260831040055 | 82 | 182 | 5.0 | 9.0 | 0.00 | 0.00 | 0.00 | 59 | 1011.5 |
| 20260831035555 | 82 | 179 | 4.0 | 9.0 | 0.00 | 0.00 | 0.00 | 60 | 1011.4 |
| 20260831035054 | 81 | 159 | 4.0 | 7.0 | 0.00 | 0.00 | 0.00 | 60 | 1011.5 |
| 20260831034554 | 81 | 171 | 4.0 | 11.0 | 0.00 | 0.00 | 0.00 | 60 | 1011.4 |
| 20260831034056 | 81 | 130 | 4.0 | 11.0 | 0.00 | 0.00 | 0.00 | 60 | 1011.5 |
| 20260831033554 | 82 | 155 | 2.0 | 9.0 | 0.00 | 0.00 | 0.00 | 60 | 1011.4 |
| 20260831033054 | 82 | 154 | 3.0 | 9.0 | 0.00 | 0.00 | 0.00 | 60 | 1011.5 |
| 20260831032554 | 82 | 176 | 3.0 | 9.0 | 0.00 | 0.00 | 0.00 | 59 | 1011.4 |
| 20260831031054 | 82 | 173 | 4.0 | 9.0 | 0.00 | 0.00 | 0.00 | 58 | 1011.4 |
| 20260831030054 | 83 | 166 | 5.0 | 10.0 | 0.00 | 0.00 | 0.00 | 58 | 1011.4 |
| 20260831025053 | 82 | 149 | 4.0 | 10.0 | 0.00 | 0.00 | 0.00 | 58 | 1011.3 |
| 20260831024553 | 83 | 124 | 4.0 | 7.0 | 0.00 | 0.00 | 0.00 | 59 | 1011.3 |
| 20260831024054 | 83 | 135 | 4.0 | 7.0 | 0.00 | 0.00 | 0.00 | 58 | 1011.3 |
| 20260831023553 | 83 | 175 | 3.0 | 6.0 | 0.00 | 0.00 | 0.00 | 57 | 1011.2 |
| 20260831023052 | 83 | 134 | 3.0 | 7.0 | 0.00 | 0.00 | 0.00 | 56 | 1011.2 |
| 20260831022553 | 84 | 159 | 3.0 | 9.0 | 0.00 | 0.00 | 0.00 | 56 | 1011.2 |
| 20260831022053 | 83 | 202 | 3.0 | 10.0 | 0.00 | 0.00 | 0.00 | 56 | 1011.2 |
| 20260831021552 | 83 | 202 | 4.0 | 10.0 | 0.00 | 0.00 | 0.00 | 56 | 1011.1 |
| 20260831021052 | 84 | 154 | 3.0 | 6.0 | 0.00 | 0.00 | 0.00 | 56 | 1011.1 |
| 20260831020552 | 85 | 172 | 2.0 | 10.0 | 0.00 | 0.00 | 0.00 | 54 | 1011.0 |
| 20260831020052 | 85 | 171 | 4.0 | 11.0 | 0.00 | 0.00 | 0.00 | 53 | 1011.0 |
| 20260831015551 | 85 | 141 | 4.0 | 11.0 | 0.00 | 0.00 | 0.00 | 53 | 1010.9 |
| 20260831015051 | 85 | 141 | 4.0 | 9.0 | 0.00 | 0.00 | 0.00 | 53 | 1010.9 |
| 20260831014052 | 86 | 180 | 3.0 | 10.0 | 0.00 | 0.00 | 0.00 | 53 | 1010.6 |
| 20260831013552 | 86 | 144 | 4.0 | 10.0 | 0.00 | 0.00 | 0.00 | 52 | 1010.5 |
| 20260831012551 | 86 | 166 | 4.0 | 9.0 | 0.00 | 0.00 | 0.00 | 53 | 1010.4 |
| 20260831012051 | 87 | 164 | 4.0 | 9.0 | 0.00 | 0.00 | 0.00 | 52 | 1010.3 |
| 20260831011551 | 88 | 204 | 4.0 | 11.0 | 0.00 | 0.00 | 0.00 | 50 | 1010.3 |
| 20260831011051 | 89 | 144 | 5.0 | 11.0 | 0.00 | 0.00 | 0.00 | 49 | 1010.3 |
| 20260831010551 | 89 | 145 | 4.0 | 12.0 | 0.00 | 0.00 | 0.00 | 48 | 1010.2 |
| 20260831010050 | 89 | 200 | 5.0 | 12.0 | 0.00 | 0.00 | 0.00 | 48 | 1010.2 |
| 20260831005551 | 90 | 114 | 5.0 | 13.0 | 0.00 | 0.00 | 0.00 | 47 | 1010.3 |
| 20260831004051 | 90 | 182 | 6.0 | 12.0 | 0.00 | 0.00 | 0.00 | 47 | 1010.2 |
| 20260831003550 | 90 | 154 | 5.0 | 9.0 | 0.00 | 0.00 | 0.00 | 47 | 1010.1 |
| 20260831003050 | 91 | 172 | 4.0 | 10.0 | 0.00 | 0.00 | 0.00 | 48 | 1010.0 |
| 20260831002550 | 91 | 166 | 5.0 | 10.0 | 0.00 | 0.00 | 0.00 | 47 | 1010.0 |
| 20260831002049 | 91 | 175 | 5.0 | 10.0 | 0.00 | 0.00 | 0.00 | 48 | 1010.0 |
| 20260831001549 | 91 | 144 | 4.0 | 10.0 | 0.00 | 0.00 | 0.00 | 48 | 1010.1 |
| 20260831001049 | 92 | 197 | 5.0 | 11.0 | 0.00 | 0.00 | 0.00 | 46 | 1010.0 |
| 20260831000549 | 93 | 182 | 5.0 | 15.0 | 0.00 | 0.00 | 0.00 | 45 | 1009.9 |
| 20260831000050 | 94 | 186 | 5.0 | 15.0 | 0.00 | 0.00 | 0.00 | 45 | 1009.9 |
| 20260830235549 | 94 | 155 | 6.0 | 15.0 | 0.00 | 0.00 | 0.00 | 44 | 1009.8 |
| 20260830235049 | 95 | 178 | 6.0 | 16.0 | 0.00 | 0.00 | 0.00 | 42 | 1009.8 |
| 20260830233049 | 96 | 157 | 6.0 | 12.0 | 0.00 | 0.00 | 0.00 | 41 | 1009.7 |
| 20260830232549 | 96 | 145 | 7.0 | 16.0 | 0.00 | 0.00 | 0.00 | 41 | 1009.7 |
| 20260830232048 | 97 | 171 | 8.0 | 19.0 | 0.00 | 0.00 | 0.00 | 39 | 1009.7 |
| 20260830231550 | 97 | 182 | 10.0 | 19.0 | 0.00 | 0.00 | 0.00 | 39 | 1009.8 |
| 20260830231049 | 97 | 180 | 8.0 | 16.0 | 0.00 | 0.00 | 0.00 | 40 | 1009.7 |
| 20260830230048 | 98 | 140 | 11.0 | 19.0 | 0.00 | 0.00 | 0.00 | 39 | 1009.7 |
| 20260830225548 | 98 | 227 | 9.0 | 16.0 | 0.00 | 0.00 | 0.00 | 40 | 1009.7 |
| 20260830224047 | 98 | 138 | 9.0 | 18.0 | 0.00 | 0.00 | 0.00 | 39 | 1009.7 |
| 20260830223047 | 99 | 192 | 9.0 | 17.0 | 0.00 | 0.00 | 0.00 | 38 | 1009.6 |
| 20260830222047 | 99 | 166 | 7.0 | 20.0 | 0.00 | 0.00 | 0.00 | 39 | 1009.6 |
| 20260830221547 | 100 | 182 | 12.0 | 20.0 | 0.00 | 0.00 | 0.00 | 37 | 1009.6 |
| 20260830220547 | 100 | 162 | 12.0 | 21.0 | 0.00 | 0.00 | 0.00 | 37 | 1009.6 |
| 20260830220046 | 100 | 209 | 9.0 | 18.0 | 0.00 | 0.00 | 0.00 | 38 | 1009.7 |
| 20260830215547 | 100 | 207 | 8.0 | 19.0 | 0.00 | 0.00 | 0.00 | 38 | 1009.6 |
| 20260830214545 | 100 | 182 | 12.0 | 21.0 | 0.00 | 0.00 | 0.00 | 37 | 1009.8 |
| 20260830214046 | 100 | 151 | 9.0 | 20.0 | 0.00 | 0.00 | 0.00 | 37 | 1009.8 |
| 20260830213547 | 100 | 247 | 10.0 | 20.0 | 0.00 | 0.00 | 0.00 | 37 | 1009.8 |
| 20260830213045 | 100 | 157 | 10.0 | 22.0 | 0.00 | 0.00 | 0.00 | 38 | 1009.8 |
| 20260830212545 | 100 | 204 | 10.0 | 22.0 | 0.00 | 0.00 | 0.00 | 38 | 1009.9 |
| 20260830212045 | 100 | 161 | 9.0 | 20.0 | 0.00 | 0.00 | 0.00 | 39 | 1010.0 |
| 20260830211045 | 101 | 158 | 7.0 | 17.0 | 0.00 | 0.00 | 0.00 | 40 | 1010.0 |
| 20260830210545 | 100 | 165 | 8.0 | 17.0 | 0.00 | 0.00 | 0.00 | 41 | 1010.0 |
| 20260830205545 | 100 | 178 | 9.0 | 20.0 | 0.00 | 0.00 | 0.00 | 40 | 1010.2 |
| 20260830205044 | 100 | 173 | 9.0 | 19.0 | 0.00 | 0.00 | 0.00 | 40 | 1010.3 |
| 20260830204544 | 100 | 238 | 10.0 | 20.0 | 0.00 | 0.00 | 0.00 | 41 | 1010.4 |
| 20260830204044 | 100 | 230 | 9.0 | 20.0 | 0.00 | 0.00 | 0.00 | 42 | 1010.4 |
| 20260830203544 | 100 | 165 | 8.0 | 17.0 | 0.00 | 0.00 | 0.00 | 42 | 1010.5 |
| 20260830203044 | 100 | 179 | 8.0 | 19.0 | 0.00 | 0.00 | 0.00 | 42 | 1010.6 |
| 20260830202544 | 100 | 176 | 9.0 | 19.0 | 0.00 | 0.00 | 0.00 | 42 | 1010.5 |
| 20260830202044 | 100 | 173 | 10.0 | 17.0 | 0.00 | 0.00 | 0.00 | 43 | 1010.8 |
| 20260830201544 | 100 | 199 | 7.0 | 21.0 | 0.00 | 0.00 | 0.00 | 43 | 1010.8 |
| 20260830201044 | 100 | 204 | 11.0 | 21.0 | 0.00 | 0.00 | 0.00 | 41 | 1010.9 |
| 20260830200544 | 100 | 175 | 6.0 | 19.0 | 0.00 | 0.00 | 0.00 | 43 | 1010.9 |
| 20260830200044 | 99 | 203 | 11.0 | 19.0 | 0.00 | 0.00 | 0.00 | 43 | 1011.1 |
| 20260830195543 | 99 | 176 | 9.0 | 18.0 | 0.00 | 0.00 | 0.00 | 44 | 1011.1 |
| 20260830195043 | 99 | 182 | 9.0 | 16.0 | 0.00 | 0.00 | 0.00 | 44 | 1011.1 |
| 20260830194543 | 99 | 138 | 6.0 | 18.0 | 0.00 | 0.00 | 0.00 | 46 | 1011.2 |
| 20260830194043 | 98 | 210 | 10.0 | 19.0 | 0.00 | 0.00 | 0.00 | 43 | 1011.2 |
| 20260830193543 | 99 | 266 | 9.0 | 19.0 | 0.00 | 0.00 | 0.00 | 44 | 1011.3 |